Location: Paddlesworth
(51.1000°N, 1.1333°E)
Time: 22:55:48
(UTC+00:00)

Cosmos 1934 Rocket - Pass Details

Date: 11 May 2021
Orbit: 937 x 1000 km, 83.0° (Epoch: 24 June)

Event Time Altitude Azimuth Distance (km) Brightness Sun altitude
Rises 23:30:37 0° 352° (N) 3,665 8.6 -20.6°
Reaches altitude 10° 23:33:13 10° 357° (N) 2,705 7.5 -20.6°
Maximum altitude 23:39:15 53° 74° (ENE) 1,156 4.4 -20.7°
Enters shadow 23:42:13 29° 137° (SE) 1,664 4.8 -20.7°
